TVS459F LKKV-LKPR

Flight info

Callsign TVS459F
Flight time 0h 23m
Altitude 11000
Route LOMKI
Aircraft B738/M-SDE2E3FGHIRWXY/LB1

Departure

Time 2026-05-01 13:20
Airport Karlovy Vary Airport (LKKV)

Arrival

Time 2026-05-01 13:43
Airport Václav Havel Airport Prague (LKPR)
Time Latitude Longitude Altitude Speed Heading
2026-05-01 13:08 50.20199 12.91127 1991 ft 0 kts 204°
2026-05-01 13:11 50.20219 12.91138 1993 ft 4 kts 180°
2026-05-01 13:11 50.20242 12.91129 1993 ft 4 kts 137°
2026-05-01 13:12 50.20253 12.91104 1994 ft 0 kts 105°
2026-05-01 13:14 50.20253 12.91106 1994 ft 1 kts 104°
2026-05-01 13:14 50.20250 12.91125 1995 ft 3 kts 100°
2026-05-01 13:14 50.20252 12.91163 1995 ft 4 kts 75°
2026-05-01 13:15 50.20270 12.91191 1998 ft 4 kts 28°
2026-05-01 13:15 50.20293 12.91207 1999 ft 4 kts 24°
2026-05-01 13:15 50.20315 12.91222 2000 ft 3 kts 23°
2026-05-01 13:15 50.20339 12.91237 1999 ft 4 kts 22°
2026-05-01 13:16 50.20373 12.91244 2001 ft 6 kts 334°
2026-05-01 13:16 50.20399 12.91175 2000 ft 11 kts 292°
2026-05-01 13:16 50.20439 12.91028 1998 ft 19 kts 293°
2026-05-01 13:17 50.20584 12.90360 1993 ft 15 kts 248°
2026-05-01 13:17 50.20577 12.90205 1993 ft 15 kts 294°
2026-05-01 13:18 50.20670 12.90152 1997 ft 7 kts 64°
2026-05-01 13:18 50.20658 12.90228 1996 ft 2 kts 114°
2026-05-01 13:18 50.20657 12.90232 1996 ft 0 kts 114°
2026-05-01 13:19 50.20655 12.90240 1996 ft 3 kts 114°
2026-05-01 13:19 50.20613 12.90391 1992 ft 41 kts 112°
2026-05-01 13:19 50.20019 12.92613 2218 ft 152 kts 111°
2026-05-01 13:20 50.19662 12.94057 3165 ft 144 kts 111°
2026-05-01 13:20 50.19251 12.95561 3731 ft 160 kts 113°
2026-05-01 13:20 50.18756 12.97301 4041 ft 192 kts 113°
2026-05-01 13:21 50.17552 13.01580 4427 ft 236 kts 113°
2026-05-01 13:21 50.16621 13.03822 4864 ft 263 kts 141°
2026-05-01 13:21 50.15033 13.05270 5816 ft 265 kts 152°
2026-05-01 13:21 50.13368 13.06576 6809 ft 270 kts 152°
2026-05-01 13:22 50.11673 13.07879 7718 ft 274 kts 151°
2026-05-01 13:22 50.09955 13.09205 8712 ft 276 kts 151°
2026-05-01 13:22 50.08224 13.10553 9718 ft 281 kts 150°
2026-05-01 13:22 50.06445 13.11953 10450 ft 297 kts 150°
2026-05-01 13:23 50.04535 13.13455 10925 ft 320 kts 150°
2026-05-01 13:23 50.02479 13.15065 11298 ft 337 kts 150°
2026-05-01 13:23 50.00351 13.16730 11391 ft 352 kts 150°
2026-05-01 13:23 49.98142 13.18455 11386 ft 358 kts 150°
2026-05-01 13:24 49.95907 13.20199 11385 ft 360 kts 150°
2026-05-01 13:24 49.93698 13.22003 11379 ft 357 kts 143°
2026-05-01 13:24 49.91941 13.24652 11401 ft 351 kts 122°
2026-05-01 13:25 49.90545 13.31709 11409 ft 345 kts 92°
2026-05-01 13:25 49.90446 13.35418 11394 ft 344 kts 91°
2026-05-01 13:25 49.90356 13.39135 11389 ft 345 kts 91°
2026-05-01 13:25 49.90246 13.42852 11391 ft 345 kts 91°
2026-05-01 13:26 49.90290 13.46553 11386 ft 343 kts 79°
2026-05-01 13:26 49.91036 13.50047 11385 ft 342 kts 62°
2026-05-01 13:26 49.92362 13.53102 11397 ft 342 kts 54°
2026-05-01 13:26 49.93821 13.56026 11386 ft 342 kts 52°
2026-05-01 13:27 49.95297 13.58923 11392 ft 342 kts 52°
2026-05-01 13:27 49.96768 13.61828 11385 ft 342 kts 52°
2026-05-01 13:27 49.99642 13.67578 11372 ft 342 kts 53°
2026-05-01 13:28 50.02533 13.73433 11389 ft 341 kts 53°
2026-05-01 13:28 50.03979 13.76373 11398 ft 342 kts 53°
2026-05-01 13:29 50.06357 13.81288 11381 ft 342 kts 57°
2026-05-01 13:29 50.08222 13.88040 11374 ft 341 kts 76°
2026-05-01 13:30 50.09850 14.02582 11391 ft 341 kts 79°
2026-05-01 13:31 50.10651 14.09809 11052 ft 329 kts 79°
2026-05-01 13:31 50.11759 14.19728 10454 ft 293 kts 79°
2026-05-01 13:32 50.12439 14.25826 9867 ft 280 kts 79°
2026-05-01 13:33 50.13412 14.34625 8927 ft 268 kts 79°
2026-05-01 13:33 50.13370 14.40280 8402 ft 268 kts 107°
2026-05-01 13:34 50.11301 14.45146 7916 ft 267 kts 125°
2026-05-01 13:34 50.09061 14.49650 7417 ft 259 kts 124°
2026-05-01 13:35 50.06904 14.54056 6921 ft 253 kts 124°
2026-05-01 13:35 50.05847 14.56224 6680 ft 249 kts 124°
2026-05-01 13:35 50.03764 14.60492 6151 ft 246 kts 125°
2026-05-01 13:36 50.02707 14.62570 5906 ft 246 kts 133°
2026-05-01 13:36 50.01233 14.63904 5635 ft 248 kts 165°
2026-05-01 13:36 49.98062 14.62590 5177 ft 242 kts 221°
2026-05-01 13:37 49.96826 14.60837 4985 ft 238 kts 224°
2026-05-01 13:37 49.95812 14.58850 4743 ft 236 kts 248°
2026-05-01 13:37 49.95589 14.56387 4558 ft 230 kts 282°
2026-05-01 13:37 49.96312 14.54238 4374 ft 226 kts 311°
2026-05-01 13:38 49.98279 14.50525 4034 ft 217 kts 309°
2026-05-01 13:38 49.99170 14.48713 3997 ft 205 kts 308°
2026-05-01 13:38 49.99988 14.47017 4015 ft 190 kts 308°
2026-05-01 13:39 50.00761 14.45406 3951 ft 179 kts 308°
2026-05-01 13:39 50.01491 14.43883 3755 ft 177 kts 307°
2026-05-01 13:39 50.02224 14.42348 3522 ft 172 kts 309°
2026-05-01 13:39 50.02946 14.40873 3281 ft 170 kts 308°
2026-05-01 13:40 50.03642 14.39411 3067 ft 167 kts 308°
2026-05-01 13:40 50.04322 14.37996 2820 ft 164 kts 308°
2026-05-01 13:40 50.04992 14.36595 2650 ft 155 kts 307°
2026-05-01 13:40 50.05627 14.35267 2412 ft 151 kts 307°
2026-05-01 13:41 50.06239 14.34012 2245 ft 137 kts 309°
2026-05-01 13:41 50.06814 14.32807 2027 ft 138 kts 308°
2026-05-01 13:41 50.07376 14.31642 1853 ft 137 kts 308°
2026-05-01 13:41 50.07944 14.30432 1641 ft 137 kts 308°
2026-05-01 13:42 50.08506 14.29265 1431 ft 134 kts 309°
2026-05-01 13:42 50.09055 14.28141 1265 ft 128 kts 309°
2026-05-01 13:42 50.09559 14.27106 1206 ft 106 kts 307°
2026-05-01 13:42 50.09912 14.26376 1198 ft 62 kts 307°
2026-05-01 13:43 50.10085 14.26018 1190 ft 26 kts 307°
2026-05-01 13:43 50.10191 14.25802 1186 ft 24 kts 311°
2026-05-01 13:43 50.10322 14.25672 1185 ft 21 kts 344°
2026-05-01 13:43 50.10446 14.25664 1182 ft 14 kts
2026-05-01 13:44 50.10486 14.25750 1179 ft 12 kts 78°
2026-05-01 13:44 50.10504 14.25892 1171 ft 15 kts 79°
2026-05-01 13:44 50.10525 14.26059 1172 ft 16 kts 79°
2026-05-01 13:44 50.10539 14.26194 1173 ft 10 kts 94°
2026-05-01 13:45 50.10514 14.26293 1171 ft 10 kts 125°
2026-05-01 13:45 50.10479 14.26370 1169 ft 9 kts 124°
2026-05-01 13:45 50.10444 14.26451 1173 ft 9 kts 124°
2026-05-01 13:45 50.10407 14.26536 1170 ft 10 kts 125°
2026-05-01 13:46 50.10383 14.26589 1171 ft 6 kts 124°
2026-05-01 13:46 50.10359 14.26643 1171 ft 7 kts 124°
2026-05-01 13:46 50.10338 14.26692 1170 ft 4 kts 121°
2026-05-01 13:46 50.10343 14.26718 1171 ft 3 kts 49°
2026-05-01 13:47 50.10358 14.26735 1171 ft 2 kts 34°
2026-05-01 13:47 50.10364 14.26741 1172 ft 0 kts 34°